{"data":{"norad_id":57676,"intl_designator":"2023-124P","name":"STARLINK-30313","alt_names":[],"object_type":"PAYLOAD","status":"ACTIVE","operator":null,"country":"US","launch_date":"2023-08-22","launch_site_code":"AFWTR","launch_vehicle":null,"mission":null,"orbit_class":"UNKNOWN","rcs_meters":null,"size_class":null,"mass_kg":null,"dimensions":null,"purposes":["comms"],"wikipedia_slug":null,"has_3d_model":false,"image_url":null,"decayed_at":null,"tle_current":{"epoch":"2026-05-25T05:20:43.940256Z","epoch_age_seconds":55831,"freshness":"FRESH","line1":"1 57676U 23124P   26145.22273079  .00000732  00000+0  36823-4 0  9990","line2":"2 57676  53.1597 211.4950 0000959  91.5171 268.5940 15.30194460155280","mean_motion":15.3019446,"eccentricity":9.59e-5,"inclination_deg":53.1597,"raan_deg":211.495,"arg_perigee_deg":91.5171,"mean_anomaly_deg":268.594,"bstar":3.6823e-5,"rev_number":15528,"period_min":94.105686410602,"perigee_km":474.57437286085,"apogee_km":475.88884896043,"semimajor_km":6853.3686109106,"source":"CELESTRAK","updated_at":"2026-05-25T13:38:18.368907Z"}}}